Location: De Keegen
(53.2903°N, 6.2195°E)
Time: 20:53:05
(UTC+00:00)

Daily predictions for brighter satellites

Satellite Brightness Start Highest point End
(mag) Time Altitude Azimuth Time Altitude Azimuth Time Altitude Azimuth
Cosmos 2360 Rocket 2.6 16:21:31 10° SW 16:27:08 64° NW 16:32:47 10° NNE
AQUARIUS 4.5 16:24:34 10° SE 16:28:45 43° ENE 16:32:57 10° N
BREEZE-M TANK 4.3 16:26:09 10° WSW 16:29:32 29° S 16:33:19 10° ESE
Cosmos 2344 4.0 16:24:17 10° S 16:31:16 41° ESE 16:37:59 10° NE
SJ-12 4.0 16:29:31 10° S 16:33:23 75° WSW 16:37:16 10° NNW
SL-16 R/B 3.4 16:28:58 10° WSW 16:34:12 37° NW 16:39:29 10° NNE
Cosmos 1937 Rocket 4.2 16:31:32 10° NNW 16:36:07 31° NE 16:40:40 10° ESE
ASTEX 1 3.4 16:34:26 10° S 16:39:16 89° ESE 16:44:11 10° N
Cosmos 1354 Rocket 4.5 16:34:23 10° NNW 16:39:36 68° WSW 16:44:47 10° SSE
Meteor 1-31 Rocket 4.1 16:38:02 10° ESE 16:40:25 17° ENE 16:42:49 10° NNE
Cosmos 1943 Rocket 2.2 16:37:54 10° NNW 16:43:35 65° NE 16:49:11 10° SE
CZ-2D R/B 3.6 16:40:49 10° S 16:44:12 59° WSW 16:47:36 10° NNW
ARIANE 5 R/B 3.7 16:42:04 10° S 16:47:07 50° W 16:52:13 10° NNW
CZ-2C R/B 4.3 16:48:32 10° E 16:50:03 13° ENE 16:51:36 10° NNE
RESURS DK-1 2.3 16:46:37 10° NNW 16:50:38 61° NE 16:54:36 10° SE
Cosmos 2237 Rocket 3.1 16:46:27 10° SSE 16:51:15 29° ESE 16:56:03 10° NE
Cosmos 1515 Rocket 4.4 16:50:35 10° SSW 16:54:47 51° WNW 16:59:03 10° N
Tsikada Rocket 4.0 16:49:21 10° S 16:55:30 84° E 17:01:43 10° NNE
Cosmos 1862 Rocket 4.4 16:51:53 10° SSE 16:55:41 30° E 16:59:32 10° NNE
BlueWalker 3 1.8 16:52:41 10° W 16:56:21 89° S 16:59:51 11° E
Cosmos 1455 2.0 16:53:56 10° NNW 16:57:10 71° W 17:00:21 10° S
USA 81 4.1 16:52:18 10° S 16:57:35 89° E 17:02:53 10° N
Cosmos 2278 Rocket 2.3 16:52:01 10° NNW 16:57:43 86° WSW 17:03:23 10° SSE
BREEZE-M DEB (TANK) 3.1 16:56:15 10° SSW 16:58:03 19° SSE 17:00:09 11° E
COSMO-SKYMED 1 3.6 16:56:20 10° NE 16:59:57 25° E 17:03:33 10° SSE
Cosmos 2219 Rocket 2.6 16:56:38 10° SW 17:02:11 62° NW 17:07:47 10° NNE
SJ-7 4.1 16:58:51 10° SSE 17:02:38 77° ENE 17:06:28 10° NNW
ARGOS Delta rocket 3.7 16:58:38 10° SSE 17:03:16 86° ENE 17:07:44 10° NNW
ISS -1.8 17:01:42 10° SSW 17:04:06 18° SE 17:06:06 12° ESE
CZ-4B R/B 4.5 17:02:10 10° ESE 17:05:14 27° ENE 17:08:16 10° N
CZ-4C R/B 3.2 17:02:12 10° SSE 17:05:30 20° ESE 17:08:01 15° ENE
CSL-04 DEB 4.4 17:03:15 10° SSE 17:07:06 78° WSW 17:10:55 10° NNW
Meteor 1-21 4.2 17:04:23 10° S 17:09:59 74° E 17:15:39 10° NNE
USA 306 1.3 17:09:21 10° W 17:11:26 74° N 17:12:55 23° E
SL-14 R/B 4.4 17:08:35 10° SW 17:12:12 43° WNW 17:15:51 10° N
Cosmos 1763 Rocket 3.5 17:07:56 10° SSW 17:13:05 67° ESE 17:18:12 10° NNE
Cosmos 1733 Rocket 3.0 17:08:53 10° N 17:13:18 74° ENE 17:17:42 10° SSE
Spot 4 Rocket 4.3 17:08:29 10° S 17:13:36 73° WSW 17:18:46 10° NNW
YAOGAN 1 3.1 17:10:27 10° SE 17:14:18 34° ENE 17:18:11 10° N
Cosmos 540 Rocket 3.5 17:13:46 10° S 17:18:48 60° ESE 17:23:46 10° NNE
Landsat 7 3.8 17:15:48 10° SSE 17:20:24 58° ENE 17:25:02 10° N
Cosmos 2322 3.8 17:15:48 10° SW 17:21:33 79° NW 17:27:19 10° NNE
USA 215 3.3 17:16:12 15° ENE 17:21:43 79° NNW 17:28:16 10° WSW
SPOT 1/Viking Rocket 4.1 17:17:38 10° SE 17:22:13 33° ENE 17:26:48 10° N
Cosmos 468 Rocket 4.1 17:17:43 10° S 17:22:44 52° ESE 17:27:14 13° NE
Cosmos 2279 Rocket 4.1 17:19:05 10° NNW 17:25:19 81° W 17:31:30 10° S
Cosmos 2228 Rocket 3.1 17:22:02 10° S 17:26:30 61° E 17:31:01 10° NNE
Cosmos 1656 Rocket 3.9 17:22:55 10° NNW 17:28:10 44° NE 17:33:23 10° ESE
Cosmos 1898 Rocket 3.5 17:23:00 10° NNW 17:28:20 84° ENE 17:33:39 10° SSE
Cosmos 1980 Rocket 4.3 17:26:16 10° NW 17:29:13 14° N 17:32:10 10° NNE
Resurs 1-3 4.2 17:26:07 10° SE 17:29:56 31° ENE 17:33:46 10° N
Aureole 1 Rocket 4.5 17:24:30 10° NNW 17:32:17 85° WSW 17:39:20 10° SSE
Cosmos 841 Rocket 4.2 17:27:37 10° SSE 17:32:18 34° ESE 17:35:00 21° NE
Dummy Sat-01 4.4 17:31:24 10° S 17:35:04 74° E 17:38:44 10° N
Okean 1-7 3.2 17:36:06 10° SSE 17:40:12 46° E 17:43:21 16° NNE
SL-16 R/B 3.3 17:36:22 10° SSE 17:40:37 22° ESE 17:40:55 22° E
Cosmos 1980 3.7 17:35:10 10° SSW 17:40:44 64° ESE 17:44:57 18° NE
Cosmos 1953 2.9 17:38:27 10° NNW 17:42:06 54° W 17:45:45 10° S
Cosmos 1300 Rocket 4.4 17:39:24 10° N 17:42:41 28° NE 17:42:41 28° NE
NOSS 8 (E) 4.3 17:39:47 10° SW 17:43:39 73° SE 17:44:41 40° ENE
CZ-4 R/B 3.7 17:48:42 11° NNE 17:48:42 11° NNE 17:48:56 10° NNE
SKYMED 2 3.5 17:43:56 10° NNE 17:48:16 67° ESE 17:52:35 10° S
ADEOS 4.2 17:48:47 27° E 17:50:29 33° ENE 17:55:06 10° N
NOSS 0 Rocket 3.9 17:44:30 10° SSW 17:50:40 89° ESE 17:55:40 17° NE
Cosmos 1818 3.5 17:45:51 10° NW 17:51:22 84° NE 17:56:19 13° SE
SL-16 R/B 4.5 17:47:53 10° N 17:52:46 25° NW 17:57:40 10° WSW
ATLAS 2AS CENTAUR R/B 2.6 17:46:06 10° NW 17:53:00 81° NE 17:59:05 13° SE
Cosmos 2369 Rocket 2.4 17:48:53 10° NNW 17:54:18 46° NE 17:56:55 28° ESE
NOSS 8 (H) 4.2 17:51:39 10° SW 17:55:22 80° SE 17:55:55 58° ENE
Cosmos 1092 Rocket 4.4 17:49:46 10° SSE 17:55:22 38° E 18:01:03 10° NNE
Resurs 01 Rocket 3.2 17:57:26 19° NNE 17:57:26 19° NNE 17:59:11 10° N
ACS3 Solar Sail 1.8 17:50:56 10° SSE 17:57:20 86° ENE 18:03:46 10° NNW
COSMOS 2428 3.3 17:52:26 10° SW 17:58:02 56° NW 18:02:52 14° NNE
Cosmos 372 Rocket 4.4 17:53:17 10° NNW 17:58:19 61° WSW 18:03:19 10° S
Cosmos 2333 Rocket 4.0 17:55:33 10° W 18:00:01 23° NNW 18:04:32 10° NNE
Helios 1B rocket 4.4 18:08:10 14° N 18:08:10 14° N 18:08:47 10° N
BREEZE-M DEB (TANK) 3.5 17:58:33 10° WSW 18:06:18 56° S 18:07:22 39° SE
NOSS 8 (F) 4.3 18:02:34 10° SW 18:06:19 73° NW 18:06:43 62° NNE
Cosmos 1908 Rocket 3.4 18:02:00 10° N 18:06:23 83° ENE 18:10:42 10° SSE
Cosmos 2322 Rocket 4.2 18:05:20 10° WNW 18:09:23 20° NNW 18:13:26 10° NNE
EO 1 Delta rocket 3.8 18:07:22 10° N 18:12:14 88° WNW 18:16:51 10° SSW
Cosmos 2360 Rocket 4.1 18:07:59 10° W 18:12:15 21° NNW 18:16:23 11° NNE
Meteor 2-12 Rocket 4.4 18:06:40 10° S 18:12:37 59° E 18:18:37 10° NNE
Meteor 1-31 Rocket 3.2 18:10:06 10° S 18:13:36 54° W 18:17:08 10° NNW
CZ-4B DEB 4.4 18:12:01 36° ESE 18:13:39 46° ENE 18:18:53 10° N
Cosmos 1707 Rocket 4.5 18:11:02 10° SSW 18:15:21 49° WNW 18:19:41 10° N
Cosmos 2297 3.6 18:11:41 10° NNW 18:17:28 70° NE 18:20:17 31° SE
CZ-4B R/B 4.2 18:18:57 33° NNE 18:18:57 33° NNE 18:22:17 10° N
Cosmos 1937 Rocket 4.1 18:13:16 10° NNW 18:18:18 56° WSW 18:23:20 10° S
Okean 2 4.3 18:14:30 10° SSW 18:18:19 47° WNW 18:22:01 11° N
Cosmos 2263 4.3 18:12:45 10° NNW 18:18:20 52° NE 18:19:34 44° E
SL-16 R/B 4.4 18:16:36 10° NW 18:20:01 16° NNW 18:23:11 11° NNE
CZ-2C R/B 2.5 18:22:18 70° SW 18:22:25 71° WSW 18:25:48 10° NNW
Cosmos 2026 Rocket 4.0 18:17:46 10° S 18:24:01 62° E 18:30:17 10° NNE
Cosmos 1943 Rocket 4.2 18:22:10 10° NW 18:26:55 28° WSW 18:31:38 10° SSW
BREEZE-M DEB (TANK) 3.6 18:15:49 10° WSW 18:27:45 51° S 18:28:56 42° SE
Cosmos 1428 Rocket 4.4 18:24:38 10° S 18:30:51 87° E 18:37:03 10° NNE
BlueWalker 3 2.7 18:30:30 10° W 18:33:53 44° SSW 18:33:53 44° SSW
Cosmos 2237 Rocket 2.5 18:29:15 10° SW 18:34:55 65° NW 18:37:58 28° NNE
COSMO-SKYMED 1 3.5 18:32:35 13° N 18:36:20 46° WNW 18:40:29 10° SW
ISS -2.0 18:37:05 10° WSW 18:39:01 29° SW 18:39:01 29° SW
Cosmos 1782 Rocket 3.6 18:37:49 10° NNW 18:41:41 69° NNW 18:41:41 69° NNW
Cosmos 2344 3.7 18:37:58 10° WSW 18:45:14 64° NNW 18:48:48 33° NE
Cosmos 2219 Rocket 4.2 18:43:07 10° WNW 18:47:17 21° NNW 18:50:23 14° N
YAOGAN 1 4.2 18:46:19 10° SSW 18:50:13 34° W 18:54:08 10° NNW
CZ-4C R/B 1.9 18:48:12 10° SW 18:52:51 85° NW 18:53:04 81° NNE
Cosmos 1125 Rocket 4.4 18:49:43 10° NNW 18:53:08 37° N 18:53:08 37° N
ATLAS 5 CENTAUR R/B 3.6 18:54:14 10° SW 18:54:38 13° SW 18:54:38 13° SW
CZ-4B R/B 4.0 19:00:45 37° N 19:00:45 37° N 19:04:02 10° N
Meteor 1-24 Rocket 3.9 18:53:07 10° S 18:58:09 62° SSE 18:58:09 62° SSE
SPOT 1/Viking Rocket 4.5 18:56:30 10° S 19:01:28 47° W 19:06:26 10° NNW
Cosmos 1703 Rocket 4.2 18:57:39 10° SSW 19:02:01 54° WNW 19:02:12 53° WNW
USA 215 3.3 19:03:32 58° NE 19:04:34 66° N 19:11:01 10° WNW
Meteor 2-5 Rocket 4.4 19:03:50 10° S 19:07:38 44° S 19:07:38 44° S
Cosmos 841 Rocket 4.3 19:08:53 10° SW 19:13:58 48° NW 19:15:03 42° NNW
Cosmos 1980 Rocket 4.3 19:12:27 10° NNW 19:14:42 15° N 19:14:42 15° N
Cosmos 1553 Rocket 4.0 19:16:56 10° NNW 19:23:04 73° W 19:23:51 65° SSW
SL-16 R/B 2.6 19:18:24 10° SW 19:22:50 56° SW 19:22:50 56° SW
ADEOS 4.3 19:29:32 49° WSW 19:29:48 49° W 19:34:53 10° NNW
Resurs 01 Rocket 4.0 19:34:51 17° NNW 19:34:51 17° NNW 19:36:01 10° NNW
Cosmos 2369 Rocket 3.2 19:33:05 10° NW 19:38:18 41° WSW 19:38:45 40° WSW
ACS3 Solar Sail 4.1 19:36:52 10° SW 19:41:41 22° W 19:46:32 10° NW
ATLAS 2AS CENTAUR R/B 4.1 19:37:31 10° WNW 19:43:18 31° WSW 19:46:35 21° SSW
Cosmos 2237 Rocket 4.3 20:15:45 10° W 20:19:49 22° NW 20:19:49 22° NW
